User: anonymous   Login
Location: Unspecified
(0.0000°N, 0.0000°E)
Time: 09:02:16
(UTC+00:00)
Language:

NUSAT 2 - Orbit

View from above orbital plane
View from above orbital plane
View from above satellite
View from above satellite

Ground track
Ground track

The orbit data is extracted from the following two-line orbital elements,

1 41558U 16033C   21341.21223688  .00004293  00000-0  13797-3 0  9997
2 41558  97.4082  78.9575 0010825 341.3037  76.4420 15.32770832308173
Epoch (UTC): 07 December 2021 05:05:37
Eccentricity: 0.0010825
inclination: 97.4082°
perigee height: 460 km
apogee height: 475 km
right ascension of ascending node: 78.9575°
argument of perigee: 341.3037°
revolutions per day: 15.32770832
mean anomaly at epoch: 76.4420°
orbit number at epoch: 30817

The dashed part of the orbit path shows where the satellite is in the earth's shadow,  

DLR